Location: Observatoire
(46.1952°N, 5.3391°E)
Time: 22:14:06
(UTC+01:00)

A-11 Canister half - Pass Details

Date: 25 February 2026
Orbit: 1525 x 1683 km, 47.3° (Epoch: 9 March)

Event Time Altitude Azimuth Distance (km) Brightness Sun altitude
Rises 21:44:46 0° 292° (WNW) 4,681 12.6 -35.4°
Reaches altitude 10° 21:48:06 10° 284° (WNW) 3,693 11.7 -35.9°
Maximum altitude 21:56:14 36° 223° (SW) 2,242 9.8 -37.2°
Enters shadow 21:57:11 35° 211° (SSW) 2,269 9.8 -37.3°
Drops below altitude 10° 22:04:28 10° 161° (SSE) 3,720 - -38.4°
Sets 22:07:51 0° 153° (SSE) 4,719 - -38.9°
